Home > Time Zones > World Clock > Weather > Italy > Milan > Past weeks

Flag for Italy Weather past 2 weeks in Milan, Italy

Now
64 °F

Broken clouds.


Feels Like: 64 °F
Forecast: 59 / 75 °F
Wind: 3 mph from East

Location: Milan / Linate

Current Time: Aug 20, 2014 at 9:10:56 AM

Latest Report: Aug 20, 2014 at 8:20 AM


Visibility: 4 mi

Pressure: 29.92 "Hg

Humidity: 100%

Dew point: 64 °F

Location of MilanLocation

Historic Weather in Milan — Graph

°F

Milan temperature yesterday

Maximum temperature yesterday: 68 °F (at 12:20 AM)
Minimum temperature yesterday: 63 °F (at 6:20 AM)
Average temperature yesterday: 66 °F

Past Weeks' High & Low Weather Summary

 TemperatureHumidityPressure
High86 °F (Aug 11, 4:20 PM)100% (Aug 5, 7:20 AM)30.09 "Hg (Aug 5, 7:20 AM)
Low55 °F (Aug 17, 6:20 AM)32% (Aug 14, 5:20 PM)29.68 "Hg (Aug 13, 9:20 AM)
Average73 °F74%29.91 "Hg
* Reported Aug 5 7:20 AM — Aug 20 7:20 AM, Milan, Weather by CustomWeather, © 2014

Note: Actual official high and low records may vary slightly from our data, if they occured in-between our weather recording intervals... More about our weather records

Advertising

Milan weather history for previous 24 hours

 ConditionsComfort  
Time TempWeatherWind HumidityBarometerVisibility
7:20 AM
Aug 20
64 °FLight rain. Partly cloudy.2 mph100%29.92 "Hg4 mi
6:50 AM64 °FPartly cloudy.2 mph100%29.92 "Hg4 mi
6:20 AM64 °FPartly cloudy.3 mph100%29.92 "Hg5 mi
5:50 AM64 °FPartly cloudy.5 mph100%29.92 "Hg5 mi
5:20 AM64 °FPartly cloudy.6 mph100%29.92 "Hg5 mi
4:50 AM64 °FLight rain. Partly cloudy.5 mph100%29.92 "Hg4 mi
4:20 AM64 °FLight rain. Partly cloudy.2 mph100%29.92 "Hg5 mi
3:50 AM66 °FLight rain. Partly cloudy.3 mph94%29.92 "HgN/A
3:20 AM66 °FPartly cloudy.5 mph94%29.92 "HgN/A
2:50 AM64 °FPartly cloudy.5 mph100%29.92 "HgN/A
2:20 AM64 °FPartly cloudy.2 mph100%29.95 "HgN/A
1:50 AM64 °FPartly cloudy.3 mph100%29.95 "HgN/A
1:20 AM64 °FPartly cloudy.3 mph100%29.95 "HgN/A
12:50 AM64 °FPartly cloudy.6 mph100%29.95 "HgN/A
12:20 AM64 °FPartly cloudy.5 mph100%29.95 "HgN/A
11:50 PM
Aug 19
64 °FPartly cloudy.5 mph100%29.95 "HgN/A
11:20 PM64 °FPartly cloudy.6 mph100%29.95 "HgN/A
10:50 PM66 °FPartly cloudy.3 mph94%29.95 "HgN/A
10:20 PM64 °FPassing clouds.5 mph100%29.95 "HgN/A
9:50 PM64 °FPassing clouds.3 mph100%29.95 "HgN/A
9:20 PM64 °FPartly sunny.3 mph100%29.95 "HgN/A
8:50 PM64 °FScattered clouds.3 mph100%29.92 "HgN/A
8:20 PM66 °FScattered clouds.5 mph94%29.92 "HgN/A
7:50 PM66 °FScattered clouds.6 mph94%29.92 "HgN/A
7:20 PM68 °FPartly sunny.5 mph88%29.92 "HgN/A
6:50 PM68 °FBroken clouds.5 mph88%29.92 "HgN/A
6:20 PM66 °FPartly sunny.7 mph94%29.92 "HgN/A
5:50 PM66 °FPartly sunny.7 mph94%29.92 "HgN/A
5:20 PM66 °FBroken clouds.5 mph100%29.92 "HgN/A
4:50 PM66 °FBroken clouds.8 mph100%29.92 "HgN/A
4:20 PM66 °FLight rain. Broken clouds.8 mph100%29.92 "Hg5 mi
3:50 PM64 °FHeavy rain. Partly sunny.8 mph100%29.92 "HgN/A
3:20 PM66 °FLight rain. Broken clouds.7 mph94%29.92 "HgN/A
2:50 PM66 °FBroken clouds.9 mph88%29.92 "HgN/A
2:20 PM66 °FBroken clouds.9 mph94%29.92 "HgN/A
1:50 PM66 °FBroken clouds.8 mph94%29.92 "HgN/A
1:20 PM66 °FBroken clouds.8 mph94%29.92 "HgN/A
12:50 PM68 °FBroken clouds.8 mph88%29.92 "HgN/A
12:20 PM68 °FBroken clouds.9 mph88%29.89 "Hg5 mi
11:50 AM68 °FBroken clouds.8 mph94%29.92 "Hg4 mi
11:20 AM66 °FBroken clouds.8 mph94%29.92 "Hg4 mi
10:50 AM64 °FBroken clouds.8 mph100%29.89 "Hg4 mi
10:20 AM64 °FLight rain. Fog.7 mph100%29.89 "Hg3 mi
9:50 AM64 °FRain. Fog.6 mph100%29.89 "Hg3 mi
9:20 AM64 °FLight rain. Broken clouds.9 mph100%29.89 "Hg3 mi
Weather by CustomWeather, © 2014

See weather overviewHow to use our weather pages